GW3787 Weather Reports


time (UTC)temp
F
wind
direction
speed
knots
gust
knots
rain 1hr
in
rain 24hr
in
rain mn
in
humidity
%
barometer
mb
20260503013046 62 91 0.0 0.0 0.00 0.00 0.00 40 1011.7
20260503011555 63 91 0.0 0.9 0.00 0.00 0.00 37 1011.7
20260503010052 63 91 0.0 6.1 0.00 0.00 0.00 39 1011.8
20260503004556 63 135 0.0 0.9 0.00 0.00 0.00 38 1011.9
20260503003045 63 135 0.0 0.9 0.00 0.00 0.00 38 1012.1
20260503001547 63 135 0.0 0.0 0.00 0.00 0.00 37 1012.1
20260503000043 64 135 0.0 4.3 0.00 0.00 0.00 37 1012.2
20260502234545 65 148 0.0 7.8 0.00 0.00 0.00 36 1012.3
20260502233045 65 216 0.0 2.6 0.00 0.00 0.00 36 1012.3
20260502231540 64 216 0.0 2.6 0.00 0.00 0.00 37 1012.4
20260502230039 63 216 0.0 4.3 0.00 0.00 0.00 39 1012.5
20260502224538 63 297 2.6 6.1 0.00 0.00 0.00 37 1012.8
20260502223041 64 95 0.0 3.5 0.00 0.00 0.00 38 1013.0
20260502221538 62 95 0.0 3.5 0.00 0.00 0.00 39 1013.3
20260502220038 62 61 1.7 5.2 0.00 0.00 0.00 38 1013.5
20260502214536 62 56 0.0 3.5 0.00 0.00 0.00 39 1013.6
20260502213036 62 56 1.7 6.1 0.00 0.00 0.00 37 1013.8
20260502211542 62 41 0.0 7.0 0.00 0.00 0.00 39 1014.0
20260502210039 62 360 1.7 8.7 0.00 0.00 0.00 39 1014.1
20260502204535 62 314 0.0 7.8 0.00 0.00 0.00 41 1014.1
20260502203034 62 329 0.0 4.3 0.00 0.00 0.00 39 1014.2
20260502201535 64 16 2.6 8.7 0.00 0.00 0.00 37 1014.3
20260502200030 62 360 0.0 8.7 0.00 0.00 0.00 40 1014.5
20260502194529 62 33 1.7 7.8 0.00 0.00 0.00 40 1014.7
20260502193027 61 24 0.9 7.0 0.00 0.00 0.00 45 1014.8
20260502191523 60 16 2.6 11.3 0.00 0.00 0.00 44 1015.1
20260502190028 59 23 2.6 7.8 0.00 0.00 0.00 44 1015.2
20260502184535 59 44 5.2 11.3 0.00 0.00 0.00 45 1015.3
20260502183035 59 15 3.5 10.4 0.00 0.00 0.00 46 1015.3
20260502181532 59 22 4.3 12.2 0.00 0.00 0.00 46 1015.3
20260502163020 59 341 2.6 12.2 0.00 0.00 0.00 47 1015.2
20260502161511 60 14 3.5 11.3 0.00 0.00 0.00 46 1015.2
20260502151612 57 27 5.2 10.4 0.00 0.00 0.00 46 1015.1
20260502123029 43 27 0.0 0.0 0.00 0.00 0.00 69 1014.7
20260502121526 43 27 0.0 0.9 0.00 0.00 0.00 68 1014.5
20260502114518 45 27 0.0 0.9 0.00 0.00 0.00 62 1014.3
20260502113017 46 27 0.0 0.9 0.00 0.00 0.00 60 1014.3
20260502111515 46 27 0.0 1.7 0.00 0.00 0.00 61 1014.3
20260502110014 46 27 0.0 3.5 0.00 0.00 0.00 60 1014.2
20260502104515 47 27 0.0 3.5 0.00 0.00 0.00 58 1013.9
20260502103013 47 27 0.0 2.6 0.00 0.00 0.00 56 1013.5
20260502101522 48 27 0.0 4.3 0.00 0.00 0.00 54 1013.3
20260502090113 48 27 0.0 5.2 0.00 0.00 0.00 51 1012.4
20260502070057 48 316 0.0 1.7 0.00 0.00 0.00 50 1011.4
20260502064548 48 316 2.6 5.2 0.00 0.00 0.00 50 1011.6
20260502063041 47 335 0.0 1.7 0.00 0.00 0.00 53 1011.5
20260502061540 48 335 0.0 3.5 0.00 0.00 0.00 51 1011.5
20260502060036 45 335 0.0 2.6 0.00 0.00 0.00 56 1011.7
20260502054539 45 335 0.0 2.6 0.00 0.00 0.00 55 1011.7
20260502053035 46 335 0.0 1.7 0.00 0.00 0.00 54 1011.7
20260502051541 47 335 0.9 4.3 0.00 0.00 0.00 52 1011.8
20260502050039 48 335 0.0 0.9 0.00 0.00 0.00 49 1011.6
20260502044533 47 335 0.0 3.5 0.00 0.00 0.00 51 1011.5
20260502043033 47 335 0.0 0.9 0.00 0.00 0.00 53 1011.4
20260502041535 50 335 0.0 3.5 0.00 0.00 0.00 46 1011.2
20260502040036 49 335 0.0 0.0 0.00 0.00 0.00 49 1011.1
20260502034531 50 335 0.0 0.0 0.00 0.00 0.00 48 1011.1
20260502033130 51 335 0.0 2.6 0.00 0.00 0.00 48 1011.0
20260502031530 52 335 0.0 0.9 0.00 0.00 0.00 47 1010.7
20260502030030 54 335 0.0 0.9 0.00 0.00 0.00 45 1010.6
20260502024535 55 10 0.9 4.3 0.00 0.00 0.00 44 1010.5
20260502023029 57 10 1.7 4.3 0.00 0.00 0.00 42 1010.5
20260502021528 62 10 0.0 0.0 0.00 0.00 0.00 32 1010.3
20260502020028 64 10 0.0 0.9 0.00 0.00 0.00 28 1010.2
20260502014527 67 10 0.0 0.9 0.00 0.00 0.00 26 1010.1